Location: Piotrkow Trybunalski
(51.4000°N, 19.6830°E)
Time: 21:13:00
(UTC+01:00)

SR - Visible Passes

Search period start: 30 November 2023 00:00
Search period end: 10 December 2023 00:00
Orbit: 571 x 872 km, 66.7° (Epoch: 29 November)

Date Brightness Start Highest point End Pass type
(mag) Time Alt. Az. Time Alt. Az. Time Alt. Az.
30 Nov ? 17:06:21 10° NW 17:10:20 18° N 17:13:03 14° NE visible
30 Nov ? 18:49:01 10° NNW 18:52:20 25° N 18:52:20 25° N visible
30 Nov ? 20:31:00 10° NW 20:31:37 13° NW 20:31:37 13° NW visible
01 Dec ? 16:14:03 10° NW 16:17:59 18° N 16:21:57 10° NE visible
01 Dec ? 17:57:25 10° NNW 18:02:04 23° NNE 18:02:15 23° NNE visible
01 Dec ? 19:39:27 10° NW 19:41:32 22° NNW 19:41:32 22° NNW visible
02 Dec ? 17:05:37 10° NNW 17:09:49 20° NNE 17:12:12 16° NE visible
02 Dec ? 18:47:56 10° NNW 18:51:29 30° N 18:51:29 30° N visible
02 Dec ? 20:30:01 10° NW 20:30:46 14° NW 20:30:46 14° NW visible
03 Dec ? 16:13:33 10° NW 16:17:29 18° N 16:21:25 10° NE visible
03 Dec ? 17:56:23 10° NNW 18:01:24 28° NNE 18:01:27 28° NNE visible
03 Dec ? 19:38:22 10° NW 19:40:45 25° NW 19:40:45 25° NW visible
04 Dec ? 17:04:43 10° NNW 17:09:14 22° NNE 17:11:29 18° NE visible
04 Dec ? 18:46:49 10° NNW 18:50:46 38° N 18:50:46 38° N visible
04 Dec ? 20:29:06 10° NW 20:30:03 15° NW 20:30:03 15° NW visible
05 Dec ? 16:12:51 10° NW 16:16:58 19° N 16:21:01 10° NE visible
05 Dec ? 17:55:16 10° NNW 18:00:40 35° NE 18:00:50 35° NE visible
05 Dec ? 19:37:18 10° NW 19:40:08 29° NW 19:40:08 29° NW visible
06 Dec ? 17:03:40 10° NNW 17:08:35 26° NNE 17:10:59 20° ENE visible
06 Dec ? 18:45:41 10° NW 18:50:17 54° NNW 18:50:17 54° NNW visible
06 Dec ? 20:28:22 10° NW 20:29:35 15° WNW 20:29:35 15° WNW visible
07 Dec ? 16:11:58 10° NNW 16:16:23 21° NNE 16:20:43 10° ENE visible
07 Dec ? 17:54:07 10° NNW 17:59:48 47° NE 18:00:31 45° ENE visible
07 Dec ? 19:36:19 10° NW 19:39:50 33° WNW 19:39:50 33° WNW visible
08 Dec ? 17:02:34 10° NNW 17:07:50 33° NNE 17:10:52 20° E visible
08 Dec ? 18:44:34 10° NW 18:50:12 76° W 18:50:12 76° W visible
08 Dec ? 20:28:03 10° WNW 20:29:30 14° W 20:29:30 14° W visible
09 Dec ? 16:10:56 10° NNW 16:15:43 25° NNE 16:20:22 10° ENE visible
09 Dec ? 17:52:57 10° NW 17:58:48 66° NE 18:00:43 41° ESE visible
09 Dec ? 19:35:30 10° NW 19:40:03 29° WSW 19:40:03 29° WSW visible
